Walla Walla, WA

8:57 AM PDT on September 22, 2017 (GMT -0700)
Walla Walla Regional

Weather History for KALW - February, 2013

Change the Weather History Date:

Saturday, February 2, 2013

  Actual Average Record
Temperature  
Mean Temperature 34 °F 38 °F  
Max Temperature 37 °F 43 °F 63 °F (1991)
Min Temperature 32 °F 32 °F -16 °F (1950)
Degree Days  
Heating Degree Days 30 28  
Month to date heating degree days 56  
Since 1 July heating degree days 3108  
Cooling Degree Days 0 0  
Month to date cooling degree days 0  
Year to date cooling degree days 0  
Moisture  
Dew Point 33 °F    
Average Humidity 94    
Maximum Humidity 100    
Minimum Humidity 86    
Precipitation  
Precipitation 0.00 in 0.05 in 0.81 in (1952)
Month to date precipitation 0.11  
Year to date precipitation 2.64  
Sea Level Pressure  
Sea Level Pressure 30.39 in    
Wind  
Wind Speed 3 mph (SSE)    
Max Wind Speed 7 mph    
Max Gust Speed -    
Visibility 2 miles    
Events Fog    
T = Trace of Precipitation, MM = Missing Value Source: NWS Daily Summary

Daily Weather History Graph

Daily Weather History Graph

Search for Another Location

Airport or City:

Trip Planner

Search our weather history database for the weather conditions in past years. The results will help you decide how hot, cold, wet, or windy it might be!

Date:

Astronomy

Feb. 02, 2013 Rise Set
Actual Time 7:14 AM PST 5:00 PM PST
Civil Twilight 6:42 AM PST 5:32 PM PST
Nautical Twilight 6:06 AM PST 6:08 PM PST
Astronomical Twilight 5:31 AM PST 6:43 PM PST
Moon No Moon Rise 10:01 AM PST (2/2)
Length of Visible Light 10h 50m
Length of Day
9h 46m
Waning Gibbous, 58% of the Moon is Illuminated
Feb 2
Waning Gibbous
Feb 3
Last Quarter
Feb 9
New
Feb 17
First Quarter
Feb 25
Full

Hourly Weather History & Observations

Time (PST) Temp. Windchill Dew Point Humidity Pressure Visibility Wind Dir Wind Speed Gust Speed Precip Events Conditions
12:53 AM 36.0 °F 33.3 °F 32.0 °F 86% 30.46 in 10.0 mi SE 3.5 mph - N/A   Clear
1:53 AM 35.1 °F 32.2 °F 32.0 °F 89% 30.47 in 10.0 mi SE 3.5 mph - N/A   Clear
2:53 AM 35.1 °F - 32.0 °F 89% 30.46 in 10.0 mi Calm Calm - N/A   Clear
3:53 AM 35.1 °F 30.1 °F 33.1 °F 92% 30.45 in 10.0 mi South 5.8 mph - N/A   Clear
4:53 AM 33.1 °F 30.0 °F 30.9 °F 92% 30.46 in 9.0 mi SSE 3.5 mph - N/A   Clear
5:53 AM 32.0 °F - 30.0 °F 92% 30.46 in 3.0 mi Calm Calm - N/A   Clear
6:51 AM 32.0 °F 26.4 °F 30.2 °F 93% 30.43 in 2.5 mi SSE 5.8 mph - N/A   Clear
6:53 AM 32.0 °F 25.6 °F 30.9 °F 96% 30.46 in 3.0 mi SSE 6.9 mph - N/A   Clear
7:15 AM 33.8 °F 27.7 °F 30.2 °F 87% 30.43 in 2.5 mi SSE 6.9 mph - N/A   Clear
7:33 AM 32.0 °F 28.7 °F 30.2 °F 93% 30.42 in 3.0 mi East 3.5 mph - N/A   Clear
7:53 AM 33.1 °F 30.0 °F 30.0 °F 89% 30.47 in 3.0 mi SSW 3.5 mph - N/A   Clear
8:00 AM 33.8 °F - 30.2 °F 87% 30.43 in 1.8 mi Calm Calm - N/A   Clear
8:44 AM 33.8 °F 29.6 °F 33.8 °F 100% 30.44 in 1.8 mi South 4.6 mph - N/A   Scattered Clouds
8:53 AM 34.0 °F 31.0 °F 33.1 °F 96% 30.48 in 0.8 mi SSW 3.5 mph - N/A   Mostly Cloudy
9:07 AM 35.6 °F 32.8 °F 33.8 °F 93% 30.44 in 2.0 mi SSE 3.5 mph - N/A   Scattered Clouds
9:15 AM 35.6 °F 31.7 °F 33.8 °F 93% 30.44 in 3.0 mi South 4.6 mph - N/A   Partly Cloudy
9:38 AM 35.6 °F 31.7 °F 33.8 °F 93% 30.44 in 2.0 mi SSW 4.6 mph - N/A   Scattered Clouds
9:53 AM 36.0 °F 31.1 °F 34.0 °F 93% 30.48 in 1.2 mi WSW 5.8 mph - N/A   Scattered Clouds
9:55 AM 35.6 °F 29.9 °F 33.8 °F 93% 30.44 in 0.2 mi West 6.9 mph - N/A Fog Fog
10:09 AM 33.8 °F 30.8 °F 33.8 °F 100% 30.44 in 0.2 mi West 3.5 mph - N/A Fog Fog
10:34 AM 35.6 °F 30.7 °F 33.8 °F 93% 30.44 in 0.5 mi South 5.8 mph - N/A Fog Fog
10:41 AM 33.8 °F 29.6 °F 33.8 °F 100% 30.44 in 0.2 mi South 4.6 mph - N/A Fog Fog
10:53 AM 34.0 °F 31.0 °F 33.1 °F 96% 30.48 in 0.2 mi South 3.5 mph - N/A Fog Fog
11:01 AM 33.8 °F 28.6 °F 33.8 °F 100% 30.44 in 0.2 mi SSW 5.8 mph - N/A Fog Fog
11:53 AM 34.0 °F - 34.0 °F 100% 30.46 in 0.2 mi Calm Calm - N/A Fog Fog
12:53 PM 36.0 °F 33.3 °F 34.0 °F 93% 30.44 in 1.2 mi SSE 3.5 mph - N/A   Overcast
1:10 PM 35.6 °F - 33.8 °F 93% 30.40 in 0.2 mi Calm Calm - N/A Fog Fog
1:53 PM 36.0 °F - 35.1 °F 97% 30.42 in 0.2 mi Calm Calm - N/A Fog Fog
2:00 PM 35.6 °F - 35.6 °F 100% 30.38 in 0.8 mi Calm Calm - N/A   Overcast
2:27 PM 37.4 °F 34.9 °F 35.6 °F 93% 30.37 in 1.2 mi SSE 3.5 mph - N/A   Overcast
2:39 PM 37.4 °F 34.9 °F 35.6 °F 93% 30.37 in 0.5 mi SSW 3.5 mph - N/A Fog Fog
2:53 PM 37.0 °F 34.5 °F 36.0 °F 96% 30.40 in 0.2 mi South 3.5 mph - N/A Fog Fog
3:00 PM 37.4 °F - 35.6 °F 93% 30.36 in 0.5 mi Calm Calm - N/A Fog Fog
3:08 PM 37.4 °F - 35.6 °F 93% 30.35 in 0.2 mi Calm Calm - N/A Fog Fog
3:53 PM 36.0 °F - 35.1 °F 97% 30.38 in 0.2 mi Calm Calm - N/A Fog Fog
4:53 PM 36.0 °F - 35.1 °F 97% 30.37 in 0.2 mi Calm Calm - N/A Fog Fog
5:53 PM 36.0 °F 32.1 °F 35.1 °F 97% 30.37 in 0.2 mi ESE 4.6 mph - N/A Fog Fog
6:53 PM 35.1 °F - 34.0 °F 96% 30.34 in 0.5 mi Calm Calm - N/A Fog Fog
7:06 PM 35.6 °F - 33.8 °F 93% 30.30 in 1.0 mi Calm Calm - N/A   Mist
7:10 PM 33.8 °F - 33.8 °F 100% 30.30 in 0.2 mi Calm Calm - N/A Fog Fog
7:28 PM 33.8 °F - 33.8 °F 100% 30.30 in 0.2 mi Calm Calm - N/A Fog Fog
7:53 PM 33.1 °F - 32.0 °F 96% 30.34 in 0.2 mi Calm Calm - N/A Fog Fog
8:03 PM 33.8 °F 30.8 °F 30.2 °F 87% 30.30 in 0.2 mi East 3.5 mph - N/A Fog Fog
8:10 PM 33.8 °F 30.8 °F 30.2 °F 87% 30.29 in 1.2 mi East 3.5 mph - N/A   Mostly Cloudy
8:12 PM 32.0 °F 27.5 °F 30.2 °F 93% 30.29 in 3.0 mi ESE 4.6 mph - N/A   Mostly Cloudy
8:19 PM 33.8 °F 29.6 °F 30.2 °F 87% 30.29 in 6.0 mi ESE 4.6 mph - N/A   Scattered Clouds
8:53 PM 33.1 °F 30.0 °F 32.0 °F 96% 30.32 in 6.0 mi ESE 3.5 mph - N/A   Clear
9:53 PM 34.0 °F - 32.0 °F 92% 30.31 in 7.0 mi Calm Calm - N/A   Clear
9:58 PM 33.8 °F 30.8 °F 32.0 °F 93% 30.28 in 1.5 mi WSW 3.5 mph - N/A   Clear
10:00 PM 33.8 °F 30.8 °F 32.0 °F 93% 30.28 in 0.8 mi WSW 3.5 mph - N/A   Mist
10:36 PM 32.0 °F - 30.2 °F 93% 30.27 in 1.2 mi Calm Calm - N/A   Scattered Clouds
10:53 PM 32.0 °F 28.7 °F 30.0 °F 92% 30.31 in 2.5 mi SE 3.5 mph - N/A   Partly Cloudy
11:14 PM 32.0 °F 28.7 °F 30.2 °F 93% 30.27 in 4.0 mi SE 3.5 mph - N/A   Clear
11:53 PM 33.1 °F 28.7 °F 30.9 °F 92% 30.30 in 6.0 mi SE 4.6 mph - N/A   Clear